Wind_Speed
5 6 6 8 9 14 12 13 13 16 19 17 22 22 24 31 28 22 35 27 29 24 28 30 25 21 23 24 23 19 17 16 18 18 16 14 11 9 6 5 7 8 12
8 8 7 7 10 13 10 13 14 16 17 23 23 23 30 27 33 24 25 23 26 28 24 23 25 19 19 19 20 17 19 20 19 16 11 8 6 4 4 5 11 14 14
9 6 9 10 13 14 13 17 19 22 22 22 23 22 24 25 28 32 31 27 25 25 24 22 22 22 22 21 22 19 15 14 11 10 9 7 7 6 7 9 13 16 18
10 10 11 13 14 14 14 15 17 18 19 20 20 22 22 22 20 22 23 23 22 22 21 20 22 22 21 20 18 16 14 11 9 8 10 9 8 9 12 15 18 20 21
8 9 10 11 11 12 14 14 15 18 19 18 16 15 16 21 24 25 25 24 23 22 21 20 19 19 18 15 14 12 10 9 9 9 9 10 12 14 15 17 19 22 27
8 7 8 9 12 14 15 15 15 17 19 20 20 20 19 18 17 18 19 20 20 19 17 15 14 14 13 11 8 8 8 8 7 8 10 12 15 18 19 22 25 30 30
7 8 9 9 11 14 16 19 18 18 18 19 18 18 16 16 15 14 13 14 13 13 12 11 10 9 8 8 8 9 8 8 11 14 16 17 20 23 25 28 31 32 34
7 8 9 10 10 13 16 17 18 18 17 15 13 12 11 11 11 11 10 10 9 9 9 8 8 9 9 8 7 8 10 11 13 16 19 23 26 28 28 30 33 36 39
10 10 10 9 10 10 13 15 14 13 11 9 9 8 8 8 8 8 8 8 8 8 6 4 4 5 6 7 8 10 13 17 20 23 25 26 26 28 31 36 39 41 42
12 11 11 9 9 9 8 9 9 8 6 4 2 2 3 5 7 8 9 10 10 9 7 6 7 9 10 11 13 15 18 21 23 24 25 26 29 34 39 42 44 47 49
14 13 12 12 11 9 8 7 6 5 4 3 4 4 6 6 7 8 10 13 14 12 10 10 10 11 12 14 17 20 22 25 27 29 31 34 38 42 45 47 48 50 52
17 15 13 12 12 10 7 7 7 6 6 6 5 5 5 5 6 8 10 13 16 16 16 15 15 16 17 19 23 26 27 28 29 32 36 40 44 47 47 48 50 53 55
18 17 16 14 13 10 9 9 8 8 7 7 7 9 9 10 11 11 12 14 15 16 17 18 18 18 22 25 27 28 30 32 35 38 41 43 46 49 55 56 56 57 56
24 24 22 19 18 16 15 15 15 13 13 12 11 12 12 13 14 16 18 18 20 20 20 21 22 24 26 29 30 33 35 36 38 40 42 43 48 53 54 58 58 56 61
26 27 27 26 25 23 21 20 20 19 18 17 17 17 17 16 19 19 20 22 24 24 23 24 26 29 31 32 33 36 38 40 43 43 46 48 50 54 58 54 57 62 69
27 28 29 29 28 26 25 25 24 24 23 23 22 21 23 24 24 25 25 26 28 29 29 30 34 35 36 36 37 40 42 46 47 48 48 50 53 52 58 61 66 68 70
28 29 30 30 30 29 27 27 27 27 27 27 25 25 26 27 28 28 29 30 31 31 33 35 37 38 39 40 43 45 47 47 50 52 52 54 56 62 64 68 70 73 77
29 29 32 30 29 28 28 28 28 28 28 29 28 27 28 29 29 30 30 30 31 32 34 37 40 43 47 51 49 48 50 51 54 54 58 61 64 63 67 70 74 78 80
38 36 35 33 30 29 30 30 29 29 29 31 29 28 29 30 30 31 33 34 35 35 37 43 46 44 53 48 52 54 59 59 62 64 63 62 62 65 70 74 76 79 81
36 35 35 35 33 32 33 33 32 32 31 31 29 30 31 32 34 35 38 39 40 40 43 47 43 49 55 57 57 62 62 69 72 68 58 61 65 69 72 74 77 79 82
37 34 37 37 39 32 35 35 35 35 33 33 34 34 36 37 38 40 41 43 45 46 47 49 53 56 60 65 57 56 66 72 69 57 59 61 64 67 70 72 76 82 88
39 38 39 41 41 36 35 36 38 38 34 32 32 33 35 38 40 42 46 48 50 50 51 58 53 60 67 68 74 50 53 51 53 55 58 59 61 65 71 76 81 87 88
40 33 36 33 29 31 33 35 38 38 37 37 37 36 37 40 42 44 49 53 56 56 55 59 64 67 64 51 44 47 47 50 53 54 55 60 65 69 75 82 85 82 78
45 42 36 30 31 32 35 37 40 42 43 43 41 39 42 39 39 43 40 51 53 53 58 58 55 49 44 44 42 44 46 48 50 54 59 64 68 74 76 75 72 69 63
39 40 37 36 37 37 37 40 42 44 47 46 47 48 48 42 39 43 53 52 59 61 39 37 44 43 39 39 40 40 44 50 55 59 62 66 68 67 69 68 68 56 51
41 40 44 44 39 39 38 41 41 46 46 55 46 37 35 46 44 44 44 46 39 38 41 39 39 38 36 37 40 46 50 52 54 57 61 61 63 65 68 71 64 59 49
Wind_Direction
146 141 109 103 100 77 84 89 84 88 102 92 99 99 127 107 128 140 147 140 150 159 158 154 171 179 171 162 157 164 162 167 172 172 177 176 180 183 199 229 265 285 285
117 139 125 114 107 110 102 98 96 102 98 98 102 92 108 119 124 136 147 158 156 168 163 176 162 158 175 165 167 169 168 167 168 163 158 176 196 212 271 287 276 282 296
100 132 114 110 106 107 109 106 100 106 100 106 109 100 90 88 95 124 141 140 141 131 135 142 152 146 154 160 158 158 157 164 155 156 176 199 218 228 255 282 296 298 299
99 99 113 111 103 100 105 107 108 107 106 105 102 101 102 105 111 113 113 121 125 128 129 132 135 134 143 150 155 153 169 157 170 188 211 225 248 274 285 291 294 296 300
85 94 104 115 112 107 105 112 116 113 110 110 116 113 111 113 120 125 127 127 132 134 136 141 143 148 144 148 157 158 176 182 206 223 243 261 280 289 290 292 297 301 305
93 91 95 108 114 115 118 116 115 116 118 118 116 114 113 113 112 116 123 132 138 141 144 144 141 138 149 162 165 183 204 222 241 263 278 280 284 286 286 292 299 305 305
106 105 106 108 121 125 126 124 122 119 116 113 112 112 115 122 129 134 137 138 141 143 142 142 144 157 174 193 207 221 234 260 280 285 286 288 290 291 293 295 296 296 297
135 130 120 116 124 131 127 122 119 119 118 115 113 115 122 130 137 144 152 156 158 158 166 175 180 187 200 219 240 257 268 273 277 280 283 287 289 291 292 293 294 298 302
158 148 143 138 135 141 140 135 130 126 125 128 131 130 131 137 146 155 164 173 180 179 178 198 223 243 251 262 266 268 268 274 282 287 287 288 291 293 296 300 303 304 301
163 165 160 161 162 166 163 156 159 162 168 179 192 201 197 191 191 190 189 192 194 198 210 225 228 234 240 251 260 268 278 285 287 287 288 290 294 299 302 303 304 303 302
177 176 172 163 158 157 164 167 172 180 187 195 210 227 231 224 222 219 216 209 210 224 237 246 248 254 264 271 276 278 282 289 293 294 294 297 299 302 304 305 302 301 301
191 189 187 183 177 176 178 182 176 181 193 208 222 243 257 251 245 241 237 236 236 239 241 246 252 259 265 267 269 274 285 296 301 300 298 299 301 301 301 303 301 301 302
211 209 207 209 215 209 214 228 233 240 248 255 261 253 247 248 249 251 251 252 249 246 249 254 258 260 259 265 276 286 292 294 301 304 304 302 302 302 302 298 302 304 296
227 230 232 233 237 242 244 244 245 247 252 264 272 269 259 249 247 250 252 251 253 255 256 257 259 260 264 270 278 285 290 295 300 300 301 300 302 302 299 303 303 297 296
236 237 239 240 244 250 254 251 250 251 258 265 270 272 270 262 256 256 258 261 265 270 273 273 273 272 276 282 285 288 292 294 295 298 299 298 300 300 303 302 300 301 302
238 240 239 242 243 245 250 251 251 255 260 265 269 273 272 269 266 265 265 267 269 271 273 273 275 280 283 285 286 287 289 292 297 296 298 298 296 301 301 298 297 301 302
247 246 242 241 243 245 246 249 252 255 259 264 267 269 271 273 271 272 272 274 275 276 278 283 287 289 289 287 285 288 287 290 292 295 297 293 294 297 301 302 303 304 305
244 248 246 243 244 245 244 244 248 254 259 263 266 268 269 271 271 273 274 274 278 284 288 292 293 289 291 289 288 286 287 286 289 288 293 291 300 299 299 301 302 303 305
244 256 247 244 242 244 247 248 251 257 261 264 267 268 270 271 272 275 278 280 283 285 287 288 286 286 293 289 287 295 291 291 289 292 293 294 297 299 299 301 303 304 305
231 241 244 245 246 244 247 252 256 260 262 265 269 272 275 276 276 277 278 280 282 284 287 289 291 284 292 290 289 286 282 292 291 288 288 293 296 297 300 303 305 304 303
229 236 246 246 250 250 253 255 256 258 265 271 272 274 276 276 278 279 279 280 282 284 289 292 293 294 292 294 285 280 279 278 283 283 297 300 301 305 306 304 302 307 310
235 238 249 248 248 247 252 254 256 258 261 265 268 272 276 280 285 287 287 286 286 287 292 290 289 297 291 281 282 282 283 300 302 302 304 305 304 303 306 310 312 311 311
235 235 248 247 246 247 252 258 257 257 259 261 262 267 274 278 280 285 286 286 286 282 282 285 285 280 289 281 284 292 300 306 309 309 304 305 310 312 312 313 315 315 313
230 237 238 236 242 249 252 257 259 260 262 264 266 266 267 278 283 287 296 301 286 278 275 280 278 278 286 294 300 304 308 306 303 307 311 313 314 315 318 323 323 319 314
221 229 236 240 245 251 253 254 259 264 265 268 268 266 266 266 287 298 281 286 283 283 279 275 284 292 302 308 307 306 306 310 313 314 314 315 319 323 329 334 336 327 314
232 242 242 241 245 253 255 261 257 274 269 259 268 276 283 274 272 282 282 279 269 269 285 292 298 304 306 305 307 309 310 313 315 315 319 323 325 331 339 344 341 336 323
Height
5759 5759 5759 5758 5758 5756 5755 5754 5753 5753 5753 5753 5752 5753 5755 5754 5759 5762 5768 5773 5778 5782 5788 5792 5798 5802 5805 5809 5815 5819 5820 5823 5827 5830 5836 5837 5839 5839 5840 5840 5841 5840 5842
5761 5762 5761 5761 5760 5760 5759 5759 5758 5759 5759 5760 5759 5759 5760 5762 5766 5769 5773 5778 5781 5786 5791 5796 5799 5802 5806 5811 5818 5822 5825 5829 5831 5831 5831 5835 5838 5837 5837 5836 5839 5840 5837
5764 5765 5764 5764 5763 5763 5763 5763 5764 5764 5765 5765 5767 5768 5769 5769 5771 5774 5777 5782 5786 5789 5793 5797 5803 5804 5809 5815 5819 5822 5823 5826 5826 5828 5831 5834 5835 5834 5835 5835 5835 5834 5833
5768 5768 5768 5767 5767 5767 5767 5768 5769 5770 5770 5771 5772 5774 5777 5778 5780 5781 5784 5787 5790 5793 5797 5801 5804 5807 5812 5817 5820 5820 5825 5823 5825 5827 5831 5833 5832 5832 5832 5832 5831 5830 5828
5771 5771 5771 5771 5771 5771 5772 5772 5773 5774 5775 5776 5777 5778 5780 5783 5786 5787 5789 5792 5796 5800 5804 5808 5810 5813 5813 5816 5819 5819 5821 5823 5827 5829 5829 5829 5829 5829 5829 5828 5827 5825 5823
5773 5774 5774 5774 5775 5775 5776 5776 5777 5778 5779 5781 5782 5784 5785 5786 5788 5790 5793 5797 5800 5803 5805 5807 5808 5810 5813 5816 5816 5819 5822 5824 5825 5826 5826 5826 5825 5825 5824 5823 5822 5819 5817
5775 5776 5776 5777 5778 5779 5780 5781 5782 5783 5784 5786 5787 5788 5790 5792 5794 5796 5797 5799 5801 5803 5805 5807 5810 5813 5815 5817 5819 5821 5821 5822 5823 5823 5823 5822 5822 5820 5819 5817 5815 5812 5809
5777 5778 5779 5780 5782 5783 5784 5785 5786 5788 5789 5791 5792 5793 5795 5796 5798 5800 5801 5803 5805 5806 5808 5810 5812 5814 5816 5817 5818 5818 5819 5820 5820 5819 5819 5818 5816 5814 5812 5810 5807 5804 5801
5778 5780 5781 5783 5784 5786 5787 5788 5790 5792 5793 5795 5796 5797 5798 5800 5801 5802 5804 5805 5807 5808 5810 5811 5812 5813 5814 5815 5815 5816 5817 5816 5815 5814 5813 5811 5810 5808 5805 5802 5798 5794 5790
5779 5781 5782 5784 5785 5787 5789 5790 5792 5794 5795 5796 5797 5799 5800 5801 5803 5804 5805 5807 5808 5809 5810 5811 5812 5812 5813 5813 5813 5813 5812 5811 5810 5809 5808 5806 5803 5799 5795 5792 5788 5783 5778
5779 5781 5783 5784 5786 5789 5790 5791 5792 5794 5795 5796 5798 5799 5800 5801 5801 5803 5804 5806 5806 5807 5808 5809 5810 5810 5810 5810 5810 5809 5808 5806 5805 5803 5801 5798 5793 5790 5786 5782 5776 5771 5765
5778 5780 5783 5785 5786 5788 5791 5793 5794 5795 5795 5797 5798 5799 5799 5800 5801 5802 5803 5803 5804 5805 5805 5806 5806 5806 5806 5805 5802 5801 5800 5799 5798 5796 5793 5789 5785 5781 5776 5771 5766 5760 5753
5777 5779 5781 5784 5786 5788 5790 5791 5792 5794 5795 5795 5796 5796 5797 5798 5799 5800 5800 5800 5801 5801 5801 5801 5801 5801 5799 5797 5796 5795 5794 5792 5790 5787 5783 5779 5774 5769 5764 5757 5752 5746 5739
5774 5776 5778 5781 5783 5785 5787 5789 5790 5790 5791 5792 5793 5793 5794 5794 5795 5795 5795 5796 5795 5795 5796 5796 5795 5794 5793 5790 5788 5787 5785 5783 5780 5776 5771 5767 5762 5756 5750 5745 5739 5731 5724
5769 5770 5773 5775 5778 5780 5782 5784 5785 5786 5787 5788 5788 5789 5789 5789 5789 5789 5789 5789 5789 5790 5790 5789 5787 5785 5783 5781 5780 5778 5775 5772 5768 5764 5760 5755 5750 5744 5738 5732 5725 5717 5708
5763 5765 5767 5769 5771 5773 5775 5778 5779 5780 5781 5781 5782 5782 5782 5782 5782 5782 5782 5782 5782 5782 5782 5781 5778 5776 5775 5774 5772 5768 5764 5760 5756 5752 5748 5742 5736 5730 5725 5717 5710 5702 5693
5756 5759 5761 5762 5765 5766 5768 5770 5772 5772 5773 5774 5775 5775 5775 5775 5775 5775 5775 5775 5774 5774 5774 5772 5771 5769 5767 5765 5761 5758 5754 5749 5745 5739 5733 5728 5722 5717 5708 5700 5692 5683 5674
5749 5751 5753 5755 5757 5759 5761 5763 5764 5765 5766 5766 5768 5768 5768 5768 5768 5767 5767 5767 5767 5767 5765 5763 5761 5758 5755 5752 5749 5744 5740 5735 5730 5725 5720 5714 5707 5699 5691 5683 5673 5664 5655
5739 5743 5746 5748 5750 5752 5753 5754 5756 5757 5758 5758 5760 5760 5760 5760 5760 5759 5759 5758 5758 5757 5755 5752 5748 5745 5743 5739 5736 5731 5727 5723 5718 5711 5706 5698 5690 5683 5675 5666 5657 5646 5636
5728 5734 5737 5739 5742 5744 5746 5748 5749 5749 5749 5750 5752 5753 5753 5753 5752 5751 5750 5749 5747 5745 5743 5742 5738 5736 5732 5727 5723 5719 5713 5707 5702 5697 5689 5681 5673 5666 5657 5648 5638 5628 5616
5720 5724 5729 5729 5734 5736 5738 5739 5739 5738 5740 5742 5743 5743 5743 5743 5742 5741 5740 5738 5736 5735 5732 5728 5726 5723 5718 5715 5704 5702 5698 5691 5687 5679 5672 5665 5658 5649 5640 5631 5620 5609 5595
5711 5716 5718 5721 5723 5727 5728 5728 5729 5730 5731 5732 5732 5732 5733 5734 5733 5731 5730 5727 5725 5722 5719 5714 5713 5709 5703 5701 5696 5689 5681 5674 5668 5662 5656 5649 5641 5633 5624 5613 5600 5586 5571
5704 5707 5710 5712 5715 5716 5718 5718 5719 5719 5720 5720 5721 5721 5721 5721 5720 5718 5716 5713 5711 5709 5706 5704 5699 5695 5689 5681 5677 5673 5667 5660 5654 5648 5643 5636 5627 5617 5607 5594 5580 5564 5547
5693 5698 5700 5703 5704 5706 5708 5709 5709 5709 5710 5710 5711 5712 5711 5711 5710 5708 5704 5700 5696 5694 5692 5688 5683 5680 5676 5671 5666 5660 5654 5650 5645 5638 5629 5621 5611 5601 5588 5574 5558 5543 5530
5684 5687 5690 5692 5695 5696 5698 5699 5699 5699 5699 5700 5699 5698 5699 5699 5697 5692 5688 5689 5687 5683 5678 5677 5675 5671 5664 5658 5654 5649 5645 5639 5632 5624 5616 5607 5598 5585 5573 5560 5542 5526 5514
5675 5678 5679 5679 5682 5684 5687 5688 5689 5688 5687 5686 5684 5686 5684 5685 5684 5683 5680 5676 5673 5672 5670 5667 5662 5656 5652 5649 5645 5640 5634 5627 5620 5612 5603 5592 5581 5570 5554 5537 5523 5513 5503